This demonstration page uses our WeatherBlox Daily Observations layout. Learn more.

Left ArrowRight Arrow

Hourly Observations for May 8, 2020

Temp ( °F °C ) Dew Point ( °F °C ) Humidity (%) Winds ( mph kmh ) Pressure ( in mb ) Visibility ( mi km ) Precip ( " mm )
12:15 am 00:15 Partly Cloudy 45 7.3 41 5.2 87 87 NNW 16 26 30.12 1020 10 16.0934 0 0
12:35 am 00:35 Cloudy 46 7.6 42 5.5 87 87 NNW 21 33 30.11 1020 7 11.26538 0 0
12:55 am 00:55 Cloudy with Light Rain 45 7 42 5.5 90 90 N 31 50 30.14 1021 10 16.0934 0 0
1:15 am 01:15 Cloudy 44 6.7 41 5.2 90 90 N 31 50 30.16 1021 10 16.0934 0 0
1:35 am 01:35 Cloudy 44 6.5 40 4.7 88 88 N 29 46 30.19 1022 10 16.0934 0 0
1:55 am 01:55 Cloudy with Drizzle 43 6 40 4.5 90 90 N 29 46 30.21 1023 10 16.0934 0 0
2:15 am 02:15 Cloudy 42 5.8 39 4.1 89 89 N 25 41 30.22 1023 10 16.0934 0 0
2:35 am 02:35 Cloudy 42 5.8 40 4.2 90 90 N 24 39 30.24 1024 10 16.0934 0 0
2:55 am 02:55 Cloudy 43 6 40 4.5 90 90 N 22 35 30.24 1024 10 16.0934 0 0
3:15 am 03:15 Cloudy 43 6 40 4.5 90 90 N 23 37 30.25 1024 10 16.0934 0 0
3:35 am 03:35 Cloudy 43 6 40 4.4 90 90 N 24 39 30.26 1025 10 16.0934 0 0
3:55 am 03:55 Cloudy 42 5.8 39 4.1 89 89 N 25 41 30.27 1025 10 16.0934 0 0
4:15 am 04:15 Mostly Cloudy 42 5.5 38 3.5 87 87 N 18 30 30.29 1026 10 16.0934 0 0
4:35 am 04:35 Partly Cloudy 41 5 37 3 87 87 N 16 26 30.3 1026 10 16.0934 0 0
4:55 am 04:55 Clear 40 4.7 36 2.4 85 85 N 15 24 30.31 1026 10 16.0934 0 0
5:15 am 05:15 Clear 40 4.2 35 1.6 83 83 N 17 28 30.33 1027 10 16.0934 0 0
5:35 am 05:35 Clear 39 3.9 34 1 82 82 N 22 35 30.33 1027 10 16.0934 0 0
5:55 am 05:55 Clear 38 3.5 33 0.6 82 82 N 17 28 30.35 1028 10 16.0934 0 0
6:15 am 06:15 Clear 37 3 32 0 81 81 N 18 30 30.37 1028 10 16.0934 0 0
6:35 am 06:35 Sunny 37 2.8 32 -0.2 81 81 N 16 26 30.38 1029 10 16.0934 0 0
6:55 am 06:55 Sunny 37 2.9 31 -0.6 78 78 N 15 24 30.38 1029 10 16.0934 0 0
7:15 am 07:15 Sunny 37 3 31 -0.5 78 78 N 14 22 30.39 1029 10 16.0934 0 0
7:35 am 07:35 Sunny 38 3.3 31 -0.5 76 76 N 18 30 30.39 1029 10 16.0934 0 0
7:55 am 07:55 Sunny 39 3.7 31 -0.5 74 74 N 20 31 30.39 1029 10 16.0934 0 0
8:15 am 08:15 Sunny 40 4.2 31 -0.3 73 73 N 22 35 30.4 1029 10 16.0934 0 0
8:35 am 08:35 Sunny 40 4.5 30 -0.9 68 68 N 22 35 30.4 1030 10 16.0934 0 0
8:55 am 08:55 Sunny 41 5 29 -1.5 63 63 N 21 33 30.4 1029 10 16.0934 0 0
9:15 am 09:15 Sunny 42 5.5 29 -1.5 61 61 N 20 31 30.4 1030 10 16.0934 0 0
9:35 am 09:35 Sunny 43 6.1 30 -1.1 60 60 N 17 28 30.4 1029 10 16.0934 0 0
9:55 am 09:55 Sunny 44 6.5 28 -2 55 55 N 22 35 30.4 1030 10 16.0934 0 0
10:15 am 10:15 Sunny 45 7 28 -2.1 53 53 NNE 20 31 30.41 1030 10 16.0934 0 0
10:35 am 10:35 Sunny 46 7.6 28 -2 51 51 NNE 17 28 30.4 1030 10 16.0934 0 0
10:55 am 10:55 Sunny 47 8.2 28 -2.4 48 48 NNE 17 28 30.39 1029 10 16.0934 0 0
11:15 am 11:15 Sunny 48 8.9 27 -2.9 44 44 N 17 28 30.39 1029 10 16.0934 0 0
11:35 am 11:35 Sunny 49 9.2 27 -2.6 44 44 N 12 19 30.38 1029 10 16.0934 0 0
11:55 am 11:55 Sunny 50 9.8 27 -2.6 42 42 N 14 22 30.37 1029 10 16.0934 0 0
12:15 pm 12:15 Sunny 50 10.2 26 -3.3 39 39 N 12 19 30.37 1028 10 16.0934 0 0
12:35 pm 12:35 Sunny 51 10.5 26 -3.4 38 38 N 9 15 30.37 1028 10 16.0934 0 0
12:55 pm 12:55 Sunny 51 10.7 25 -4 36 36 NNW 8 13 30.36 1028 10 16.0934 0 0
1:15 pm 13:15 Sunny 53 11.4 26 -3.2 36 36 N 13 20 30.34 1027 10 16.0934 0 0
1:35 pm 13:35 Sunny 54 12 26 -3.5 34 34 N 12 19 30.33 1027 10 16.0934 0 0
1:55 pm 13:55 Sunny 54 12.3 26 -3.1 34 34 NE 5 7 30.31 1026 10 16.0934 0 0
2:15 pm 14:15 Sunny 55 12.8 28 -2.3 35 35 N 13 20 30.31 1026 10 16.0934 0 0
2:35 pm 14:35 Sunny 55 12.9 27 -2.9 33 33 N 10 17 30.3 1026 10 16.0934 0 0
2:55 pm 14:55 Sunny 56 13.2 27 -3 33 33 NNE 8 13 30.28 1026 10 16.0934 0 0
3:15 pm 15:15 Sunny 56 13.4 26 -3.1 32 32 NE 7 11 30.27 1025 10 16.0934 0 0
3:35 pm 15:35 Sunny 56 13.6 26 -3.5 31 31 NW 6 9 30.27 1025 10 16.0934 0 0
3:55 pm 15:55 Sunny 57 13.7 27 -3 32 32 NNE 9 15 30.26 1025 10 16.0934 0 0
4:15 pm 16:15 Sunny 57 13.8 27 -2.9 32 32 NE 6 9 30.25 1024 10 16.0934 0 0
4:35 pm 16:35 Sunny 57 13.8 27 -2.6 32 32 NW 3 6 30.25 1024 10 16.0934 0 0
4:55 pm 16:55 Sunny 57 14.1 26 -3.4 30 30 N 6 9 30.24 1024 10 16.0934 0 0
5:15 pm 17:15 Sunny 58 14.5 26 -3.2 29 29 NE 5 7 30.22 1023 10 16.0934 0 0
5:35 pm 17:35 Sunny 58 14.2 27 -2.9 31 31 NE 5 7 30.22 1023 10 16.0934 0 0
5:55 pm 17:55 Sunny 58 14.4 26 -3.1 30 30 NNE 5 7 30.2 1023 10 16.0934 0 0
6:15 pm 18:15 Sunny 58 14.2 27 -2.9 31 31 NNE 7 11 30.21 1023 10 16.0934 0 0
6:35 pm 18:35 Sunny 58 14.4 26 -3.1 30 30 Calm 30.19 1022 10 16.0934 0 0
6:55 pm 18:55 Sunny 58 14.2 28 -2.5 32 32 NNE 5 7 30.2 1023 10 16.0934 0 0
7:15 pm 19:15 Sunny 57 14 26 -3.2 30 30 Calm 30.2 1023 10 16.0934 0 0
7:35 pm 19:35 Sunny 56 13.5 27 -3 32 32 ENE 3 6 30.19 1022 10 16.0934 0 0
7:55 pm 19:55 Sunny 56 13.4 28 -2.2 34 34 Calm 30.19 1022 10 16.0934 0 0
8:15 pm 20:15 Sunny 55 12.8 27 -2.7 34 34 ENE 5 7 30.2 1023 10 16.0934 0 0
8:35 pm 20:35 Sunny 53 11.9 27 -2.6 37 37 E 3 6 30.21 1023 10 16.0934 0 0
8:55 pm 20:55 Clear 52 11.2 27 -2.6 38 38 E 3 6 30.21 1023 10 16.0934 0 0
9:15 pm 21:15 Clear 48 8.9 31 -0.7 51 51 E 6 9 30.23 1024 10 16.0934 0 0
9:35 pm 21:35 Clear 47 8.3 29 -1.4 51 51 ESE 6 9 30.24 1024 10 16.0934 0 0
9:55 pm 21:55 Clear 45 7 31 -0.8 58 58 ESE 6 9 30.26 1025 10 16.0934 0 0
10:15 pm 22:15 Clear 44 6.4 31 -0.8 60 60 ESE 6 9 30.27 1025 10 16.0934 0 0
10:35 pm 22:35 Clear 42 5.5 30 -1 63 63 ESE 7 11 30.28 1026 10 16.0934 0 0
10:55 pm 22:55 Clear 43 5.9 29 -1.4 60 60 SE 5 7 30.29 1026 10 16.0934 0 0
11:15 pm 23:15 Clear 43 6.3 29 -1.9 56 56 Calm 30.3 1026 10 16.0934 0 0
11:35 pm 23:35 Clear 43 6.3 29 -1.9 56 56 Calm 30.3 1026 10 16.0934 0 0
11:55 pm 23:55 Clear 44 6.5 28 -2.1 55 55 S 5 7 30.28 1026 10 16.0934 0 0

Powered by AerisWeather